Wetbulb
27.56 27.11 26.95 26.58 26.82 27.23 27.08 27.32 27.81 28.70 29.49 29.04 29.11 28.93 28.71 28.23 28.52 28.73 29.39 29.41 28.51 28.29 28.41 27.66 27.74 28.08 26.05 25.93 26.92 26.43 25.93 25.87 23.60 24.81 26.84 27.01 26.23 25.63 25.97 25.96 26.58 26.29 26.73
26.79 26.29 25.90 26.02 26.07 25.39 25.61 26.33 27.35 27.61 28.87 28.64 28.69 28.24 27.93 27.54 27.69 27.95 27.23 26.99 26.27 26.48 26.32 24.51 24.09 26.18 24.57 25.02 25.51 24.67 24.41 25.07 23.26 20.99 23.34 23.65 23.54 24.35 23.93 22.64 24.42 25.78 25.03
25.87 25.40 25.01 25.08 24.73 24.47 25.02 26.03 26.43 26.73 27.20 27.91 28.22 27.63 27.36 26.68 26.59 26.47 26.02 26.34 26.13 25.90 24.76 22.97 23.17 24.32 23.88 24.34 24.52 23.61 23.90 23.34 23.00 22.74 21.60 22.89 22.18 22.50 20.77 21.44 21.86 22.47 24.33
24.86 24.21 24.29 24.24 24.40 24.21 24.94 25.29 25.59 25.45 26.00 26.11 26.62 27.40 27.08 25.92 26.00 26.10 25.71 25.61 25.57 24.97 25.67 23.93 23.10 23.57 24.14 24.57 24.13 23.09 22.74 21.93 22.56 21.43 20.30 19.52 19.43 20.24 19.02 17.25 16.98 19.48 18.67
23.64 23.47 23.29 23.98 23.74 24.03 24.58 24.82 24.71 24.88 24.52 25.16 25.62 26.67 28.09 27.50 26.99 25.34 24.76 24.43 24.13 22.85 23.53 23.50 23.04 23.53 25.70 26.07 23.95 21.69 21.28 20.88 20.36 19.21 16.93 16.40 16.46 15.53 15.24 16.95 15.74 16.14 17.28
22.50 22.40 22.46 23.31 23.65 23.79 24.06 23.74 23.68 23.75 23.92 24.55 25.66 25.60 26.49 27.57 27.84 26.84 24.93 22.95 23.36 22.32 21.26 21.77 22.35 21.87 23.18 24.78 24.14 22.96 22.08 18.90 18.12 15.08 14.43 13.91 13.92 14.68 16.06 15.34 14.11 12.76 9.80
22.37 22.31 22.65 22.88 22.77 23.14 23.45 23.29 23.29 23.12 23.65 23.58 23.83 24.32 25.16 26.06 27.16 25.63 24.92 22.35 21.71 21.14 19.89 19.78 20.30 20.33 21.48 20.42 19.91 19.72 18.20 19.92 18.13 14.77 11.65 11.55 11.67 14.03 14.33 12.22 12.52 10.93 9.87
21.42 21.68 22.04 22.20 22.06 23.42 24.55 24.17 23.28 23.08 22.56 22.70 22.71 23.26 23.78 24.68 26.10 24.16 23.66 21.61 19.76 20.00 18.34 18.44 18.71 18.30 20.19 19.19 15.98 14.73 13.46 14.51 13.36 13.98 12.22 12.53 14.17 14.77 13.70 12.76 10.13 8.28 8.47
20.20 20.52 21.29 22.28 22.49 22.87 23.01 23.02 23.25 22.86 22.57 22.30 22.48 22.07 21.79 22.96 24.97 23.21 21.81 20.36 18.11 18.24 17.44 17.05 18.32 17.61 19.65 20.11 13.73 11.20 9.42 10.47 11.67 13.70 13.71 14.89 15.38 15.15 14.87 8.81 2.68 1.97 0.89
19.70 20.81 21.75 22.35 22.14 22.47 22.29 22.92 24.25 23.96 22.91 22.35 20.79 20.45 20.18 20.41 23.62 23.38 20.49 19.53 15.08 15.08 14.85 15.34 18.47 18.11 17.86 18.48 12.34 10.11 5.01 5.70 5.09 2.81 4.19 6.67 8.52 8.64 11.12 8.14 6.37 0.61 0.73
19.89 20.25 20.12 20.93 22.15 22.47 22.33 22.88 22.93 22.21 20.81 18.61 17.61 17.66 18.01 17.92 20.44 22.23 21.51 18.61 14.22 11.76 11.23 11.28 13.12 16.89 15.39 16.17 14.33 10.98 8.32 4.10 1.72 -0.27 -0.26 1.10 2.61 3.09 4.19 5.33 5.90 4.76 0.57
18.44 20.13 20.42 20.32 21.70 21.84 21.75 21.82 20.98 20.46 17.91 15.80 14.73 14.02 14.58 15.99 19.45 20.27 19.72 19.54 14.79 9.33 8.80 10.81 11.74 14.08 12.22 12.45 11.29 11.50 7.99 2.23 -2.68 -4.95 -5.75 -4.12 -2.61 -1.31 0.95 2.90 3.93 4.65 5.65
18.91 16.43 17.89 18.89 20.61 21.20 20.08 19.37 18.42 17.64 16.08 14.07 12.84 11.01 11.21 13.89 15.05 17.46 17.78 17.33 14.69 8.52 9.32 10.83 10.74 9.93 8.23 2.65 8.52 7.09 0.08 -4.23 -6.42 -10.18 -8.95 -6.03 -3.87 -1.43 0.33 -0.02 0.65 1.91 2.06
16.04 16.62 17.27 17.20 17.73 18.60 18.60 17.63 16.95 14.64 11.72 12.37 10.42 8.99 9.96 11.57 12.52 14.23 12.44 10.57 11.16 3.76 2.49 1.36 5.74 4.32 4.68 0.79 -3.68 -3.23 -4.51 -6.83 -8.76 -10.79 -9.79 -7.16 -4.45 -4.93 -5.89 -3.50 -5.92 -3.66 -5.43
15.75 15.61 15.96 16.36 16.33 14.94 15.32 14.29 13.41 13.21 12.83 9.74 6.83 7.14 1.30 0.29 6.20 13.67 9.68 3.93 3.43 1.34 -14.15 -15.71 -13.83 -10.36 -9.75 -9.59 -10.97 -10.92 -8.61 -9.48 -11.42 -11.54 -12.35 -12.02 -10.19 -8.93 -8.66 -6.85 -6.85 -6.92 -8.82
14.68 14.92 14.92 14.15 13.39 12.40 10.58 9.54 16.94 16.41 18.20 16.94 15.63 8.08 3.68 13.72 16.62 16.26 16.12 12.83 12.11 7.28 -19.57 -23.97 -21.49 -20.96 -17.81 -17.72 -18.56 -16.84 -16.00 -13.89 -14.16 -14.10 -15.20 -14.59 -14.54 -14.12 -12.93 -10.80 -8.73 -9.20 -9.84
14.96 13.78 12.57 11.17 9.37 8.45 8.24 7.91 4.84 5.28 17.47 17.33 17.06 16.76 15.03 14.71 15.11 14.68 14.23 9.90 9.01 -2.49 -24.29 -28.39 -25.22 -25.49 -23.57 -21.40 -21.99 -22.07 -20.51 -16.54 -22.12 -20.13 -19.54 -18.71 -17.28 -17.18 -16.04 -14.86 -11.98 -10.54 -10.12
12.58 11.33 9.85 7.37 4.92 1.96 1.57 -1.86 -2.81 -2.04 -4.41 -6.45 3.62 8.45 12.11 12.92 13.47 12.30 11.74 0.13 -18.42 -18.66 -28.90 -27.63 -26.32 -27.83 -26.81 -25.91 -25.82 -25.82 -23.92 -21.17 -22.85 -21.40 -22.91 -25.82 -24.93 -23.57 -19.74 -17.21 -14.83 -14.39 -11.92
8.99 3.43 0.42 -2.88 -4.60 -4.37 -7.41 -9.73 -11.64 -14.24 -15.03 -15.95 -16.91 -1.91 -6.81 9.18 10.87 9.00 6.73 -20.37 -22.28 -25.47 -29.32 -30.04 -30.75 -29.99 -28.90 -29.79 -28.79 -30.17 -31.45 -27.81 -26.31 -29.51 -30.09 -32.03 -26.63 -30.06 -21.46 -18.60 -16.08 -13.86 -11.71
-1.24 -1.92 -3.71 -6.10 -10.56 -11.45 -9.85 -10.16 -14.13 -14.81 -17.83 -18.04 -19.05 -16.21 -19.33 -15.77 -14.75 -19.22 -25.98 -27.77 -28.28 -27.76 -28.95 -28.93 -28.64 -32.36 -31.47 -31.16 -31.04 -32.92 -31.56 -31.38 -29.32 -30.75 -28.16 -28.47 -26.94 -30.75 -21.31 -20.11 -17.76 -16.23 -13.57
-3.02 -5.55 -6.73 -11.72 -9.74 -10.19 -10.88 -9.68 -9.96 -12.84 -13.35 -15.39 -14.20 -15.65 -0.36 -12.92 -16.02 -19.92 -22.73 -27.14 -24.31 -24.87 -24.94 -26.73 -27.70 -29.39 -30.42 -31.87 -35.68 -35.33 -35.08 -26.58 -28.56 -28.77 -28.33 -27.72 -31.78 -28.73 -25.28 -19.75 -18.60 -16.04 -13.89
-4.27 -7.57 -10.70 -9.30 -14.06 -13.73 -13.16 -11.80 -12.84 -12.90 -14.55 -15.55 -17.18 -18.33 6.78 -15.54 -19.22 -19.85 -21.69 -20.28 -20.24 -20.86 -21.67 -24.08 -24.31 -24.93 -24.07 -26.10 -26.83 -29.77 -28.50 -25.39 -25.14 -28.14 -28.29 -27.07 -28.36 -26.23 -25.06 -23.15 -19.55 -16.35 -13.74
-7.53 -10.47 -13.50 -21.27 -14.01 -14.72 -16.02 -18.43 -17.16 -16.55 -16.41 -16.42 -17.82 -15.93 -18.15 -18.95 -18.30 -17.51 -16.31 -16.90 -20.21 -20.74 -23.43 -27.26 -24.84 -23.26 -24.25 -25.91 -26.47 -24.87 -24.24 -21.52 -20.33 -26.29 -22.57 -21.61 -23.67 -23.30 -25.27 -22.84 -18.74 -16.92 -13.89
-9.74 -9.13 -9.04 -13.56 -15.48 -13.66 -12.23 -14.48 -16.74 -14.60 -15.31 -15.89 -19.14 -18.33 -15.17 -15.36 -16.10 -14.86 -14.83 -16.41 -19.49 -21.17 -23.51 -23.45 -23.08 -22.03 -22.46 -23.57 -26.08 -26.98 -26.17 -22.03 -25.04 -23.27 -23.72 -22.78 -21.59 -19.03 -22.48 -23.57 -17.27 -16.08 -12.87
-9.88 -10.76 -10.64 -9.85 -11.17 -10.91 -13.29 -14.57 -14.25 -14.96 -15.11 -13.82 -13.91 -14.42 -13.90 -14.22 -14.57 -15.09 -15.41 -16.41 -17.35 -18.96 -18.42 -19.40 -20.15 -19.62 -19.31 -20.04 -21.40 -24.07 -23.64 -13.73 -15.15 -18.03 -21.81 -22.77 -19.91 -18.68 -18.36 -18.55 -15.84 -12.03 -12.04
-10.10 -9.80 -8.80 -11.93 -12.64 -13.41 -13.01 -12.01 -11.86 -12.23 -12.39 -11.73 -11.47 -11.98 -11.41 -12.32 -11.68 -12.86 -14.06 -16.32 -16.64 -16.83 -17.10 -17.70 -17.79 -18.80 -19.36 -19.12 -20.20 -17.29 -14.73 -8.63 -9.93 -12.03 -15.68 -15.29 -13.67 -14.56 -19.05 -18.06 -13.74 -11.48 -10.95
MSLP
1025.80 1025.98 1026.04 1026.05 1026.11 1026.28 1026.24 1026.27 1026.32 1026.37 1026.36 1026.42 1026.45 1026.49 1026.49 1026.31 1026.26 1026.01 1025.88 1025.91 1025.93 1026.24 1026.45 1026.55 1026.58 1026.55 1026.63 1026.56 1026.42 1026.23 1026.10 1025.91 1025.53 1024.85 1024.55 1024.36 1023.78 1023.31 1022.74 1022.57 1021.88 1021.20 1020.66
1025.95 1026.25 1026.46 1026.51 1026.55 1026.71 1026.73 1026.75 1026.72 1026.83 1026.85 1026.90 1026.95 1026.96 1026.99 1027.10 1026.97 1027.01 1026.85 1026.89 1026.83 1026.86 1027.04 1027.02 1027.20 1027.12 1027.23 1027.06 1026.82 1026.62 1026.38 1026.18 1025.88 1025.07 1024.73 1024.41 1023.98 1023.53 1023.11 1022.56 1021.99 1021.33 1020.68
1026.02 1026.32 1026.55 1026.77 1026.94 1027.12 1027.22 1027.20 1027.19 1027.26 1027.40 1027.49 1027.44 1027.38 1027.50 1027.48 1027.52 1027.65 1027.64 1027.75 1027.73 1027.52 1027.62 1027.75 1027.70 1027.44 1027.21 1027.28 1027.07 1026.86 1026.65 1026.51 1026.26 1025.89 1025.14 1024.69 1024.09 1023.58 1023.03 1022.54 1021.86 1021.21 1020.69
1026.10 1026.33 1026.56 1026.92 1027.23 1027.43 1027.55 1027.69 1027.71 1027.88 1027.99 1028.14 1028.12 1027.90 1027.85 1027.93 1028.12 1028.17 1028.27 1028.46 1028.52 1028.27 1028.09 1028.07 1028.20 1028.13 1027.79 1027.49 1027.32 1027.10 1026.84 1026.51 1026.25 1025.95 1025.60 1025.12 1024.50 1023.89 1023.47 1022.73 1021.45 1021.20 1020.31
1025.97 1026.27 1026.58 1026.89 1027.19 1027.52 1027.82 1028.08 1028.19 1028.25 1028.47 1028.55 1028.62 1028.62 1028.27 1028.17 1028.27 1028.65 1028.55 1028.57 1029.19 1029.02 1028.83 1028.63 1028.73 1028.72 1028.30 1027.93 1027.71 1027.59 1027.26 1026.97 1026.62 1026.30 1026.25 1025.73 1025.08 1024.49 1024.08 1023.51 1022.72 1021.36 1020.33
1025.64 1026.15 1026.58 1026.90 1027.25 1027.66 1028.01 1028.34 1028.61 1028.83 1029.02 1029.12 1029.00 1028.97 1028.95 1028.98 1029.00 1028.99 1029.03 1029.19 1029.38 1029.58 1029.25 1029.15 1028.92 1029.09 1028.86 1028.34 1028.35 1028.06 1027.76 1027.55 1027.27 1027.45 1027.20 1026.68 1026.10 1025.67 1025.04 1024.59 1023.84 1022.66 1021.00
1025.45 1026.07 1026.60 1027.04 1027.49 1027.91 1028.20 1028.47 1028.85 1029.10 1029.52 1029.61 1029.97 1029.47 1029.58 1029.74 1029.58 1029.37 1029.19 1029.57 1030.00 1030.17 1029.94 1029.67 1029.36 1029.55 1029.48 1029.18 1029.10 1028.79 1028.87 1028.48 1028.54 1028.38 1028.12 1027.75 1027.11 1026.43 1025.83 1025.18 1024.71 1024.16 1023.12
1025.28 1025.96 1026.57 1027.07 1027.56 1027.83 1028.21 1028.57 1029.06 1029.37 1029.42 1029.37 1030.54 1030.29 1030.05 1029.91 1029.94 1029.90 1029.80 1030.05 1030.38 1030.43 1030.39 1030.32 1030.15 1030.19 1029.88 1029.76 1029.78 1029.58 1029.55 1029.55 1029.46 1029.05 1028.90 1028.31 1027.52 1026.92 1026.54 1026.02 1025.61 1024.57 1023.00
1025.34 1025.97 1026.56 1027.06 1027.47 1027.76 1028.06 1028.25 1028.72 1029.12 1029.99 1029.47 1030.15 1030.75 1030.56 1030.45 1030.32 1030.25 1030.22 1030.06 1030.60 1030.91 1030.99 1031.16 1030.70 1030.66 1030.37 1029.91 1030.47 1030.27 1030.44 1030.43 1030.22 1029.65 1029.12 1028.34 1027.80 1027.43 1026.83 1026.45 1025.96 1025.26 1023.52
1025.24 1025.82 1026.34 1026.86 1027.24 1027.67 1028.18 1028.44 1028.53 1029.11 1029.81 1029.73 1030.43 1031.15 1031.32 1030.95 1030.47 1030.47 1030.73 1030.63 1031.10 1031.49 1031.82 1031.81 1031.40 1030.95 1030.81 1030.42 1030.82 1031.06 1031.28 1031.10 1030.65 1030.16 1029.56 1028.96 1028.63 1028.20 1027.60 1027.40 1026.94 1026.37 1025.77
1025.11 1025.72 1026.30 1026.78 1027.25 1027.68 1027.98 1028.70 1028.68 1029.28 1029.85 1030.18 1030.83 1031.41 1031.67 1031.67 1030.80 1030.63 1030.58 1030.87 1031.72 1032.15 1032.34 1032.32 1032.10 1031.42 1031.50 1031.06 1031.30 1031.44 1031.43 1031.89 1031.59 1031.08 1030.47 1029.84 1029.33 1028.95 1028.52 1028.16 1027.71 1027.00 1026.15
1025.30 1025.74 1026.27 1026.76 1027.17 1027.57 1028.04 1028.64 1028.94 1029.28 1029.88 1030.67 1031.41 1031.63 1031.93 1031.89 1031.24 1031.07 1031.07 1031.13 1032.08 1032.38 1032.60 1032.44 1032.39 1032.04 1032.29 1032.09 1031.99 1031.75 1032.07 1032.33 1032.14 1031.58 1031.06 1030.53 1030.10 1029.65 1029.20 1028.60 1028.01 1027.16 1026.49
1025.45 1026.05 1026.45 1026.81 1027.22 1027.73 1028.20 1028.82 1028.99 1029.61 1030.14 1030.95 1031.53 1031.87 1031.98 1032.13 1032.17 1031.81 1031.68 1031.67 1032.08 1032.74 1032.84 1032.61 1032.75 1032.84 1033.04 1033.54 1032.63 1032.54 1032.97 1032.78 1032.56 1032.39 1032.14 1031.60 1031.09 1030.36 1029.60 1028.89 1028.14 1027.32 1026.20
1025.47 1025.99 1026.44 1026.87 1027.44 1027.94 1028.55 1028.94 1029.41 1030.02 1030.46 1031.11 1031.60 1032.01 1032.27 1032.42 1032.38 1032.46 1032.56 1032.66 1032.83 1033.58 1033.92 1034.08 1033.53 1033.69 1033.56 1033.93 1033.95 1033.66 1033.52 1033.66 1033.57 1033.50 1033.00 1032.25 1031.35 1030.59 1029.90 1029.24 1028.40 1027.31 1026.30
1025.44 1025.97 1026.53 1027.03 1027.52 1028.20 1028.78 1029.16 1029.68 1030.04 1030.38 1030.98 1031.75 1032.19 1032.70 1032.53 1032.06 1032.11 1032.45 1032.94 1033.58 1033.98 1035.35 1035.76 1035.48 1035.21 1035.04 1034.85 1034.63 1034.42 1034.20 1034.17 1034.16 1034.03 1033.52 1032.82 1032.01 1031.25 1030.47 1029.73 1028.84 1027.80 1026.96
1025.33 1025.96 1026.51 1027.14 1027.88 1028.67 1029.29 1029.70 1029.67 1030.13 1030.15 1030.77 1031.41 1032.11 1032.79 1031.86 1031.35 1031.41 1031.56 1032.14 1032.42 1033.36 1035.86 1036.74 1036.64 1036.38 1036.15 1036.02 1035.83 1035.41 1034.97 1034.86 1034.76 1034.54 1034.16 1033.74 1033.08 1032.26 1031.33 1030.25 1029.38 1028.38 1027.28
1025.06 1025.93 1026.68 1027.36 1028.35 1028.96 1029.79 1030.32 1030.54 1030.49 1030.31 1030.69 1030.95 1031.17 1031.62 1031.59 1031.56 1031.65 1031.85 1032.73 1032.85 1034.25 1035.80 1037.04 1037.26 1037.24 1036.93 1036.47 1036.31 1036.24 1035.95 1035.42 1035.39 1035.08 1034.76 1034.33 1033.74 1032.92 1032.04 1030.99 1029.96 1028.94 1027.63
1025.31 1026.03 1026.74 1027.65 1028.60 1029.49 1030.32 1031.03 1031.59 1031.88 1032.08 1032.42 1032.53 1032.07 1031.88 1031.88 1031.78 1032.03 1032.27 1033.96 1034.28 1034.79 1035.72 1036.92 1037.30 1036.96 1036.80 1036.67 1036.48 1036.44 1036.04 1035.72 1035.50 1035.27 1034.97 1034.59 1034.13 1033.63 1032.62 1031.56 1030.49 1029.51 1028.25
1025.62 1026.59 1027.31 1028.31 1029.12 1029.97 1030.91 1031.78 1032.35 1032.99 1033.08 1033.57 1033.91 1033.14 1033.93 1032.38 1032.12 1032.43 1032.95 1034.48 1035.48 1036.33 1036.11 1036.43 1036.37 1036.44 1036.41 1036.47 1036.51 1036.43 1036.23 1035.94 1035.64 1035.35 1034.95 1034.69 1034.21 1033.79 1032.88 1031.97 1030.94 1029.72 1028.61
1026.13 1026.90 1027.83 1028.85 1029.99 1030.87 1031.39 1032.13 1032.75 1033.10 1033.51 1033.94 1034.25 1034.32 1034.55 1034.41 1034.03 1033.83 1034.31 1034.81 1035.33 1035.57 1035.66 1035.86 1035.94 1036.10 1036.31 1036.55 1036.51 1036.32 1035.99 1035.68 1035.32 1035.06 1034.72 1034.46 1033.96 1033.60 1032.97 1032.11 1031.07 1030.14 1028.77
1026.54 1027.44 1028.20 1029.39 1030.13 1030.66 1031.35 1031.91 1032.49 1033.08 1033.46 1033.80 1033.87 1033.59 1033.90 1033.92 1034.06 1034.07 1034.24 1034.60 1034.89 1035.08 1035.11 1035.29 1035.45 1035.57 1035.61 1035.88 1036.33 1036.12 1035.61 1035.16 1034.85 1034.66 1034.39 1033.96 1033.65 1033.29 1032.53 1031.90 1031.05 1029.92 1028.83
1026.65 1027.63 1028.56 1029.30 1030.15 1030.90 1031.30 1031.60 1032.28 1032.79 1033.08 1033.32 1033.33 1033.16 1033.09 1033.36 1033.43 1033.61 1033.70 1033.88 1034.02 1034.11 1034.05 1034.26 1034.41 1034.38 1034.26 1034.58 1034.70 1035.13 1034.82 1034.46 1034.05 1033.98 1033.77 1033.42 1033.10 1032.70 1032.20 1031.61 1030.76 1029.72 1028.60
1026.75 1027.77 1028.67 1029.42 1029.80 1030.47 1031.21 1031.60 1031.99 1032.23 1032.53 1032.65 1032.76 1032.79 1032.74 1032.73 1032.87 1033.02 1033.10 1033.11 1033.25 1033.15 1033.23 1033.75 1033.73 1033.57 1033.40 1033.52 1033.61 1033.69 1033.77 1033.24 1032.91 1033.20 1033.04 1032.73 1032.41 1032.04 1031.59 1031.16 1030.42 1029.52 1028.53
1026.60 1027.35 1028.12 1029.03 1029.78 1030.20 1030.67 1031.12 1031.27 1031.38 1031.65 1031.87 1032.03 1032.11 1032.21 1032.18 1032.23 1032.17 1032.06 1032.08 1032.39 1032.33 1032.44 1032.62 1032.72 1032.63 1032.45 1032.41 1032.46 1032.50 1032.55 1032.26 1032.20 1032.20 1032.25 1032.15 1031.76 1031.22 1030.83 1030.38 1029.75 1028.99 1028.26
1026.28 1027.06 1027.73 1028.22 1028.83 1029.30 1029.76 1030.08 1030.42 1030.62 1030.82 1030.94 1031.04 1031.24 1031.26 1031.36 1031.35 1031.26 1031.28 1031.33 1031.46 1031.55 1031.39 1031.52 1031.58 1031.43 1031.28 1031.23 1031.33 1031.33 1031.25 1031.09 1030.99 1030.89 1031.03 1031.21 1030.88 1030.30 1029.99 1029.63 1029.04 1028.37 1027.68
1025.86 1026.39 1026.85 1027.51 1028.10 1028.49 1028.79 1029.06 1029.29 1029.53 1029.74 1029.81 1029.96 1030.06 1030.17 1030.28 1030.25 1030.24 1030.34 1030.56 1030.62 1030.55 1030.36 1030.41 1030.44 1030.42 1030.33 1030.21 1030.11 1030.03 1029.94 1029.84 1029.74 1029.61 1029.63 1029.68 1029.42 1029.10 1028.91 1028.68 1028.16 1027.78 1027.14
Wind_Speed
3 3 4 4 5 4 4 4 5 5 5 6 6 6 6 6 6 5 6 7 8 7 7 8 8 8 6 5 4 4 3 2 4 4 4 7 9 11 10 10 10 10 11
4 4 4 4 5 5 4 4 5 5 5 5 5 6 6 6 7 6 8 7 7 8 7 8 8 6 6 5 3 6 5 4 5 9 8 6 9 12 11 13 10 9 10
5 5 5 4 5 4 4 4 5 5 5 5 5 6 6 6 7 7 6 7 7 7 7 7 7 6 6 5 4 5 5 6 5 7 8 7 7 8 12 10 11 10 9
6 5 5 5 4 4 4 5 5 5 5 5 5 5 6 7 6 7 7 7 6 6 7 8 8 7 8 8 7 7 7 7 7 6 8 9 7 10 8 12 13 10 13
6 6 5 5 5 5 5 5 5 5 5 5 5 5 6 7 6 5 6 6 4 6 6 6 9 9 13 11 6 8 8 7 6 7 8 8 9 12 13 11 12 13 13
7 6 6 6 5 5 5 5 6 5 5 5 7 6 6 7 12 10 8 6 6 5 6 5 6 9 11 13 13 12 11 9 10 7 6 9 12 11 11 11 11 13 10
8 7 7 6 6 5 6 6 7 7 6 6 6 7 6 7 11 10 9 7 5 5 6 7 7 7 9 10 12 11 12 13 13 8 9 10 11 12 12 13 13 12 11
8 8 7 7 7 7 7 8 7 6 6 7 5 6 5 6 11 8 7 6 5 6 7 8 8 8 10 10 9 9 10 9 11 8 9 10 10 11 12 11 12 13 12
8 8 8 8 8 7 8 8 8 8 6 7 6 5 6 6 10 9 4 6 6 6 7 7 8 7 12 14 8 9 9 8 11 16 15 16 17 18 17 8 8 11 10
9 9 8 8 8 8 7 7 6 7 7 6 7 5 5 5 9 10 6 5 6 4 5 6 11 9 12 13 8 8 6 9 10 11 10 12 13 14 18 12 9 9 8
9 9 7 6 7 8 7 5 6 7 8 7 7 5 4 4 5 9 10 6 4 3 3 3 5 10 11 12 11 7 9 8 10 7 7 7 8 9 8 9 10 9 8
9 9 9 8 7 6 8 6 6 8 8 7 5 4 2 3 6 7 8 9 7 4 3 3 4 9 10 11 9 13 14 9 5 6 6 7 8 8 8 9 11 11 10
9 8 8 7 7 7 7 7 6 6 6 5 4 3 2 2 1 6 6 7 9 5 3 4 6 8 10 9 13 14 9 6 6 6 6 6 7 8 10 9 10 10 12
10 9 8 8 7 6 4 4 5 4 4 4 4 3 2 1 1 2 2 4 7 5 5 4 5 7 10 8 4 8 6 5 4 5 5 6 7 7 7 8 7 9 9
9 9 8 6 7 6 4 4 4 2 5 4 2 3 3 1 3 8 6 4 4 5 4 3 3 2 3 4 4 4 4 5 5 5 5 7 7 7 7 8 7 8 8
10 8 7 7 6 5 5 3 9 10 11 10 11 6 2 5 2 2 5 3 5 7 4 2 2 2 2 3 3 3 2 4 3 5 4 5 6 7 8 9 8 8 9
10 8 7 7 6 6 5 6 5 3 8 7 7 6 4 3 1 2 3 4 5 4 3 0 1 1 2 2 2 1 3 3 2 3 3 5 6 7 7 7 8 8 9
8 9 7 6 5 5 5 4 4 5 4 1 3 2 3 3 3 2 4 4 3 4 2 3 2 3 2 2 2 2 3 4 2 3 3 4 4 4 6 7 8 8 9
8 5 5 5 4 5 4 4 4 3 3 2 2 1 5 3 3 2 5 3 3 2 2 2 4 3 3 2 2 3 3 3 3 3 3 3 4 2 6 5 7 11 11
5 9 7 6 5 4 4 5 4 3 3 3 3 4 2 2 1 1 0 2 2 3 3 3 3 3 3 3 3 2 3 3 3 3 4 4 4 2 5 6 6 8 9
6 6 8 5 5 5 5 5 4 4 4 4 4 4 9 4 4 4 4 3 4 4 4 4 3 3 3 3 2 3 3 4 3 4 4 4 3 4 3 5 6 7 8
6 6 5 6 4 4 4 4 4 5 5 4 3 3 8 2 3 3 4 4 5 5 4 4 4 4 4 4 4 3 4 5 4 3 4 4 4 4 4 4 6 6 7
6 7 5 3 4 4 3 4 4 4 4 4 4 3 2 3 3 4 5 5 4 4 4 4 4 4 4 4 4 5 5 6 5 3 4 5 5 5 3 5 6 7 7
6 7 7 4 5 5 5 5 4 5 5 4 4 4 4 4 5 6 5 4 4 4 4 4 5 7 5 5 4 5 5 6 4 5 6 5 6 6 4 4 6 7 7
6 6 6 7 7 6 5 4 5 5 5 4 4 4 4 5 5 5 5 4 4 4 5 5 5 7 9 9 8 8 8 11 8 6 5 6 8 8 7 5 6 8 8
6 7 6 5 5 5 5 5 5 5 5 5 5 5 5 5 6 5 5 5 5 5 6 5 7 10 10 8 9 10 10 11 10 11 7 6 7 7 4 6 9 6 8
Wind_Direction
136 110 105 95 87 75 75 80 80 74 71 63 54 48 42 42 27 46 66 57 66 61 51 45 39 40 33 18 16 17 17 1 307 294 302 317 327 330 335 335 325 327 327
158 134 117 105 96 93 90 90 83 79 72 72 66 63 53 41 36 38 59 52 58 63 61 58 44 42 26 1 355 17 357 338 335 318 311 331 327 331 330 328 330 326 322
154 143 134 118 110 111 104 93 84 82 77 66 66 68 62 53 51 45 53 61 63 70 72 56 40 28 38 0 5 11 3 345 332 318 314 324 325 334 331 331 331 327 325
158 150 138 138 131 119 106 93 85 79 79 64 48 69 77 66 57 61 59 57 60 59 76 66 50 23 17 359 17 8 2 345 344 333 328 332 330 344 334 333 334 337 328
156 150 148 136 130 124 111 97 88 84 80 70 57 35 69 66 63 60 69 76 62 65 47 67 49 27 7 5 14 4 2 352 347 352 338 332 336 345 346 334 325 328 328
158 154 144 139 136 131 119 108 96 84 78 68 65 44 47 67 61 63 70 63 55 57 54 49 48 27 358 9 12 9 17 359 1 350 330 335 335 333 332 333 327 336 331
150 147 148 141 132 126 119 112 106 98 87 80 59 54 50 52 56 63 72 66 55 64 49 36 31 20 0 10 10 15 16 10 15 351 343 338 327 332 334 330 330 322 301
146 148 145 140 135 131 126 120 118 114 109 104 78 62 57 60 57 53 71 84 64 73 51 41 28 15 7 18 7 14 10 7 3 2 348 332 331 341 340 337 329 311 301
146 145 144 145 142 140 140 140 139 132 134 123 117 96 66 51 47 61 74 76 67 54 55 38 15 17 8 22 17 11 359 3 349 356 355 355 356 353 354 344 347 345 328
147 148 146 146 147 148 145 149 137 140 137 119 106 83 62 34 45 48 56 70 61 55 40 29 1 23 16 23 28 17 348 2 350 350 353 357 359 353 358 1 341 333 328
137 136 135 137 142 140 134 142 134 130 119 110 112 92 72 27 30 48 52 60 70 68 55 23 353 19 22 23 28 25 13 17 352 349 342 343 352 351 346 344 337 327 317
140 142 140 140 141 141 144 137 132 134 125 124 125 119 84 32 71 45 53 78 76 86 56 25 3 23 33 19 24 26 24 22 359 357 353 353 349 343 337 333 331 320 313
140 139 141 136 136 138 140 147 132 130 132 140 150 140 113 70 23 66 62 81 60 77 63 31 39 34 39 27 22 26 30 17 9 6 353 340 332 324 324 326 323 312 311
146 144 141 138 134 126 121 128 132 141 126 146 145 145 142 174 158 150 110 75 71 72 59 20 50 52 47 47 9 17 19 14 4 344 329 321 322 334 335 338 323 331 320
148 148 147 143 139 128 114 126 137 102 152 145 143 138 141 230 248 166 150 132 145 138 89 30 15 3 13 12 5 358 3 6 4 345 334 335 336 336 334 334 325 328 330
153 156 156 145 131 125 127 125 143 155 149 145 148 157 253 231 161 112 102 79 90 138 54 61 1 360 8 345 344 330 321 354 340 337 328 328 327 329 327 327 327 331 329
159 152 141 135 144 146 142 150 141 13 142 148 163 179 170 211 151 144 108 108 90 92 98 157 200 258 277 303 305 302 295 316 308 313 309 318 324 322 328 325 326 327 328
142 144 148 147 142 130 149 149 128 148 159 251 349 189 187 263 190 161 119 91 22 19 112 173 216 224 247 264 294 283 299 312 311 305 308 302 305 302 321 325 324 320 323
141 141 127 122 127 134 130 133 144 150 177 178 348 288 7 260 240 120 101 130 175 219 205 214 214 226 238 247 258 269 254 282 280 304 296 287 299 302 310 305 308 315 319
120 134 134 135 131 131 142 149 155 161 156 181 189 218 273 67 93 265 308 146 182 229 218 222 237 225 234 236 257 256 284 283 287 289 283 287 286 264 293 304 307 313 316
140 135 137 120 153 161 162 172 170 167 185 198 214 208 199 180 207 209 207 210 213 227 226 218 230 230 223 234 233 252 251 275 265 265 272 275 279 307 285 284 293 298 302
146 146 149 160 145 158 177 169 176 185 189 195 225 254 250 121 187 214 225 233 223 222 217 203 225 221 217 216 220 230 248 263 269 253 269 274 278 283 281 284 299 303 309
145 147 152 148 159 154 160 181 183 185 195 209 206 220 224 229 222 228 234 238 230 231 217 199 222 247 230 226 212 213 231 250 247 212 266 281 284 280 269 284 296 305 313
152 162 169 164 164 182 185 190 193 200 205 209 207 215 223 225 234 241 240 239 234 236 222 218 220 233 239 239 224 221 228 249 231 241 233 252 272 282 270 267 283 288 295
163 165 170 180 187 191 187 194 201 207 207 207 215 212 221 228 234 238 238 226 233 230 236 224 225 238 243 243 243 241 239 257 255 230 222 224 251 265 266 269 278 294 293
174 182 187 169 186 187 191 197 210 203 211 213 218 219 223 224 232 231 231 224 232 237 236 229 236 238 244 245 244 249 248 252 244 233 224 223 245 259 239 258 277 280 289